This is the latest recevied weather packets stored in our database for station/object KC8BSD. If no packets are shown the sender has not sent any weather packets the latest 10 day(s).
| Time | Temp. | Humidity | Pressure | Rain* | Wind** | Luminosity | Snow |
|---|---|---|---|---|---|---|---|
| 1778089798 | 11.67° C | 50% | 1014.2 hPa | 0 mm | - | 325 W/m² | - |
| 1778089496 | 11.11° C | 49% | 1014.2 hPa | 0 mm | - | 360 W/m² | - |
| 1778089187 | 11.67° C | 51% | 1014.5 hPa | 0 mm | - | 312 W/m² | - |
| 1778088885 | 11.11° C | 48% | 1014.4 hPa | 0 mm | - | 317 W/m² | - |
| 1778088581 | 11.11° C | 47% | 1014.5 hPa | 0 mm | - | 373 W/m² | - |
| 1778088279 | 11.11° C | 48% | 1014.7 hPa | 0 mm | - | 297 W/m² | - |
| 1778087975 | 11.11° C | 48% | 1014.6 hPa | 0 mm | - | 373 W/m² | - |
| 1778087672 | 11.67° C | 47% | 1014.6 hPa | 0 mm | - | 372 W/m² | - |
| 1778087370 | 11.67° C | 53% | 1014.3 hPa | 0 mm | - | 281 W/m² | - |
| 1778087065 | 11.67° C | 53% | 1014.3 hPa | 0 mm | - | 344 W/m² | - |
| 1778086759 | 11.11° C | 51% | 1014.4 hPa | 0 mm | - | 322 W/m² | - |
| 1778086457 | 11.67° C | 55% | 1014.4 hPa | 0 mm | - | 621 W/m² | - |
| 1778086152 | 10.56° C | 50% | 1014.4 hPa | 0 mm | - | 482 W/m² | - |
| 1778085849 | 11.11° C | 50% | 1014.5 hPa | 0 mm | - | 385 W/m² | - |
| 1778085548 | 10° C | 49% | 1014.4 hPa | 0 mm | - | 329 W/m² | - |
| 1778085242 | 10.56° C | 51% | 1014.4 hPa | 0 mm | - | 289 W/m² | - |
| 1778084936 | 10.56° C | 52% | 1014.3 hPa | 0 mm | - | 294 W/m² | - |
| 1778084635 | 10.56° C | 51% | 1014.1 hPa | 0 mm | - | 253 W/m² | - |
| 1778084327 | 10° C | 52% | 1014.5 hPa | 0 mm | - | 275 W/m² | - |
| 1778084024 | 10.56° C | 51% | 1014.5 hPa | 0 mm | - | 258 W/m² | - |
| 1778083722 | 10.56° C | 53% | 1014.4 hPa | 0 mm | - | 287 W/m² | - |
| 1778083418 | 10.56° C | 51% | 1014.3 hPa | 0 mm | - | 325 W/m² | - |
| 1778083117 | 10.56° C | 52% | 1014.3 hPa | 0 mm | - | 438 W/m² | - |
| 1778082813 | 10.56° C | 52% | 1014.2 hPa | 0 mm | - | 362 W/m² | - |
| 1778081691 | 11.11° C | 52% | 1014 hPa | 0 mm | - | 265 W/m² | - |
* Rain latest hour (hover to see other rain measurements)
** Current wind speed in m/s (hover to see current wind gust speed)